Showing default

IRIDIUM 103, 41918

Orbit data source: Space-Track

IRIDIUM 103, 41918 is a payload satellite owned by Iridium (US) in LEO that was launched on Sat, 14 Jan 2017 UTC via an FALCON 9 launch vehicle from the Air Force Western Test Range (AFWTR). Payload-class satellites include a variety of spacecraft equipped with specific instruments for various scientific and technological missions. These include communications satellites like Starlink; space stations such as the ISS; scientific satellites like the Hubble; Earth observation satellites from companies like Planet Labs, Umbra, and HawkEye 360; GPS; miniature CubeSats for education and research; and military/defense satellites.

Loading next visibility...
Identifier
41918, 2017-003B
Orbit
LEO
Country
Flag of USUS
Related business
Manufacturer
OATK SSG Gilbert
Mission
Operational Commercial Communications
Bus & Motor
ELITEBUS, Unknown motor
Mass
860 kg wet, 700 kg dry
Launch date (UTC)
2017-01-14 (9 years ago)
Launch vehicle
FALCON 9
Launch site
Air Force Western Test Range (AFWTR)
Object type
Payload
Rocket body
Debris
Shape & HBR
Trap Box + 2 Pan, 4.8 m
Radar Cross Section
10.154 m², Large (>1 m²)

Expand to show TLE details & history
Last TLE update: 1 day ago

TLE from 1 day ago
0 IRIDIUM 103
1 41918U 17003B   25314.35849786  .00000217  00000-0  70258-4 0  9995
2 41918  86.4012 179.8717 0002026  72.9752 287.1665 14.34217490461863
Epoch: 2025-11-10T08:36Z
TLE epoch observation values (Epoch: 2025-11-10T08:36:14.215Z)
Latitude
-0.00007°
Longitude
1.05192°
Altitude
780.291 km
Speed
7.464 km/s
True Right ascension
11h 59m 29s
True Declination
0° 00' 00"
Sunlit
Object was in daylight at epoch
Visualization orbit readout
Latitude
Unknown
Longitude
Unknown
Altitude
Unknown
Speed
Unknown
Apparent Right ascension
Unknown
Apparent Declination
Unknown
Sunlit
N/A
Visualization observer readout
Local Sidereal Time
09:34:38
Azimuth
Unknown
Elevation
Unknown
Doppler factor
Unknown
Orbital elements
Apogee altitude
776.082 km
Perigee altitude
773.183 km
Semi-major axis
7,152.769 km
Eccentricity
0.0002
Inclination
86.4012°
RAAN
179.8717°
Arg. of periapsis
72.9752°
True anomaly
287.14432°
Mean anomaly
287.1665°
Eccentric anomaly
287.15541°
Mean motion
3.58783 °/min
Orbital period
100.34 mins
BSTAR
0.000070258
Loading maneuver chart data...
Computing Atmospheric mass density...
Loading historical data...
Loading historical data...
Loading historical data...
Loading historical data...
Loading historical data...
Loading historical data...
Loading historical data...

Documentation

Showing up to 5 results
|